Volver al catálogo

GRUS-1C

ActivoCienciaSSO
NORAD 47933·PAYLOAD·🇯🇵 Japan

Lanzado Mar 22, 2021 desde Baikonur Cosmodrome

Loading…

Próximos Pases (próximas 24 horas)

TLE

ActualizadoSource: Space-Track

Época: Sep 14, 2026, 15:39 UTC

1 47933U 21022B   26257.65221672  .00000063  00000-0  99331-5 0  9995
2 47933  97.5212 137.7140 0013520  19.9598 340.2151 14.98819320299303

Sigue GRUS-1C en tiempo real con AllMySat

Download on the App Store